Flag for Canada Weather past 2 weeks in Arctic Bay, Nunavut Territory, Canada

Now
27 °F

Overcast.


Feels Like: 17 °F
Forecast: 37 / 46 °F
Wind: 9 mph from South

Location: Pond Inlet

Current Time: Sep 22, 2014 at 7:38:34 AM

Latest Report: Sep 22, 2014 at 7:00 AM


Visibility: 9 mi

Pressure: 29.59 "Hg

Humidity: 93%

Dew point: 25 °F

Location of Arctic BayLocation

Historic Weather in Arctic Bay — Graph

°F

Arctic Bay temperature yesterday

Maximum temperature yesterday: 27 °F (at 12:00 AM)
Minimum temperature yesterday: 25 °F (at 8:52 PM)
Average temperature yesterday: 26 °F

Past Weeks' High & Low Weather Summary

 TemperatureHumidityPressure
High39 °F (Sep 9, 4:00 PM)100% (Sep 7, 6:00 AM)29.93 "Hg (Sep 7, 6:00 AM)
Low19 °F (Sep 17, 12:00 AM)60% (Sep 13, 12:00 PM)29.21 "Hg (Sep 13, 2:00 PM)
Average30 °F85%29.61 "Hg
* Reported Sep 7 6:00 AM — Sep 22 6:00 AM, Arctic Bay, Weather by CustomWeather, © 2014

Note: Actual official high and low records may vary slightly from our data, if they occured in-between our weather recording intervals... More about our weather records

Advertising

Arctic Bay weather history for previous 24 hours

 ConditionsComfort  
Time TempWeatherWind HumidityBarometerVisibility
6:00 AM
Sep 22
28 °FMostly cloudy.9 mph86%29.58 "Hg9 mi
5:00 AM27 °FMostly cloudy.15 mph86%29.57 "Hg9 mi
4:00 AM25 °FLight snow. Passing clouds.17 mph86%29.55 "Hg10 mi
3:00 AM25 °FLight snow. Overcast.15 mph93%29.54 "Hg10 mi
2:00 AM27 °FLight snow. Overcast.14 mph86%29.54 "Hg10 mi
1:00 AM25 °FLight snow. Overcast.12 mph93%29.54 "Hg9 mi
12:47 AM25 °FLight snow. Overcast.12 mph93%29.54 "Hg9 mi
12:04 AM25 °FLight snow. Overcast.12 mph93%29.54 "Hg9 mi
12:00 AM25 °FLight snow. Overcast.12 mph93%29.54 "Hg9 mi
11:00 PM
Sep 21
25 °FOvercast.10 mph93%29.54 "Hg9 mi
10:00 PM25 °FMostly cloudy.8 mph100%29.54 "HgN/A
9:04 PM25 °FLight snow. Overcast.9 mph100%29.55 "Hg5 mi
8:52 PM25 °FLight snow. Low clouds.8 mph100%29.55 "Hg6 mi
8:00 PM27 °FLight snow. Overcast.7 mph93%29.55 "Hg9 mi
7:00 PM27 °FOvercast.8 mph93%29.56 "HgN/A
6:00 PM27 °FLight snow. Overcast.7 mph93%29.56 "Hg9 mi
5:57 PM27 °FLight snow. Overcast.9 mph93%29.56 "Hg9 mi
5:02 PM27 °FLight snow. More clouds than sun.8 mph93%29.56 "Hg9 mi
4:04 PM27 °FLight snow. Mostly cloudy.7 mph93%29.57 "Hg8 mi
3:00 PM27 °FLight snow. Cloudy.12 mph93%29.57 "Hg8 mi
2:04 PM27 °FLight snow. Mostly cloudy.10 mph93%29.58 "Hg9 mi
1:59 PM27 °FLight snow. Mostly cloudy.12 mph93%29.58 "Hg9 mi
1:00 PM27 °FLight snow. Mostly cloudy.10 mph93%29.59 "Hg9 mi
12:58 PM27 °FLight snow. Mostly cloudy.12 mph93%29.59 "Hg9 mi
12:00 PM27 °FLight snow. Mostly cloudy.13 mph93%29.60 "Hg6 mi
11:53 AM27 °FLight snow. Mostly cloudy.13 mph93%29.60 "Hg6 mi
11:04 AM27 °FLight snow. More clouds than sun.13 mph93%29.61 "Hg9 mi
10:00 AM27 °FLight snow. Mostly cloudy.12 mph93%29.61 "Hg9 mi
9:48 AM27 °FLight snow. Overcast.12 mph93%29.62 "Hg9 mi
9:00 AM27 °FLight snow. Overcast.12 mph93%29.62 "Hg9 mi
8:00 AM27 °FMostly cloudy.13 mph93%29.63 "Hg9 mi
7:00 AM27 °FLight snow. Overcast.12 mph93%29.63 "Hg9 mi
Weather by CustomWeather, © 2014

See weather overviewHow to use our weather pages